sat.trackr.live / text

‹ back to catalog

STARLINK-31518

NORAD 59219 · 2024-046U

PAYLOAD ACTIVE UNKNOWN

§ Identity

Operator
Country
US
Launch date
2024-03-11
Launch site
AFWTR
Launch vehicle
Mass (kg)
RCS (m²)

Purposes: comms

External: N2YO · Heavens-Above · Gunter

§ Orbital elements

Epoch: 2026-05-25T00:57:17.686656Z

Period
93.85 min
Inclination
53.1597°
Eccentricity
0.0001094
Mean motion
15.34389393 rev/d
Perigee alt
462.0 km
Apogee alt
463.5 km
Semi-major
6,840.9 km
B*
2.8661e-5
RAAN
159.6701°
Arg perigee
87.4653°
Mean anomaly
272.6475°
Rev number
12,474

§ Raw data

STARLINK-315181 59219U 24046U   26145.03978804  .00000592  00000+0  28661-4 0  99912 59219  53.1597 159.6701 0001094  87.4653 272.6475 15.34389393124743

JSON: /api/v1/satellites/59219 · /tle

For live sub-satellite position, see the globe view (requires WebGL).

§ Visibility from observer

Set your observer location to see the next 7 days of passes ≥ 10°. The values pass through the URL so the page stays shareable.

No JS? Fill the form by hand. The geolocation button needs JavaScript.